User: anonymous   Login
Location: Unspecified
(0.0000°N, 0.0000°E)
Time: 06:37:56
(UTC+00:00)
Language:

MERIDIAN 3 - Orbit

View from above orbital plane
View from above orbital plane
View from above satellite
View from above satellite

Ground track
Ground track

The orbit data is extracted from the following two-line orbital elements,

1 37212U 10058A   18349.16331765 -.00000101  00000-0  10000-3 0  9993
2 37212  63.5775   7.2513 7019963 274.1178  57.6311  2.00631090 59472
Epoch (UTC): 15 December 2018 03:55:10
Eccentricity: 0.7019963
inclination: 63.5775°
perigee height: 1535 km
apogee height: 38817 km
right ascension of ascending node: 7.2513°
argument of perigee: 274.1178°
revolutions per day: 2.00631090
mean anomaly at epoch: 57.6311°
orbit number at epoch: 5947

The dashed part of the orbit path shows where the satellite is in the earth's shadow,  

DLR